Republic Airport
KFRG : now visible

Airfield :











YOU CAN JOIN US ON...

 
LOGIN :

Register | Disclaimer

   EN    FR    IT 

 









Legend :    VFR   Marginal VFR   IFR   Intensive IFR   Very Intensive IFR
Visi :
Ceiling :
>= 8 km
>= 3000ft
5 to 8 km
1000 to 3000 ft
1500m to 5 km
500 to 1000 ft
800 to 1500m
200 to 500 ft
< 800m
< 200 ft
Symbols :   Thunderstorms  Fog  Heavy snow  Heavy precipitations  Wind > 20 kt






- Airport Elevation : 82 ft


KFRG - Republic

CURRENT METAR :
  • 111029Z AUTO 20012KT 1/2SM FG VV002 24/22 A2972 RMK AO2 T02390222

EXPIRED METARs :
  • 110953Z AUTO 22009KT 10SM OVC004 24/22 A2972 RMK AO2 SLP063 T02390217
  • 110939Z AUTO 21009KT 10SM BKN004 24/22 A2972 RMK AO2 T02390217
  • 110929Z AUTO 21010KT 10SM SCT006 24/22 A2972 RMK AO2 T02390217
  • 110853Z AUTO 21011KT 10SM FEW038 24/21 A2972 RMK AO2 SLP061 T02440211 52007
  • 110753Z AUTO 20011G20KT 10SM FEW010 24/22 A2971 RMK AO2 PK WND 21027/0710 SLP059 T02440217

TAF N/A
KZNY FIR / North America



MET'MAP, your aeronautical weather chart ! - Copyright ORBIFLY December 2007 - Disclaimer

ORBIFLY MET'MAP TEAM :

Programming & Development : Alexandra Zaïnal
Concept & original design : Baudouin d'Aumeries
Assistance for programming : Marc-Olivier Méhu
Technical & hardware support : Manuel Goepfert

Contact : metmap@orbifly.com




SOURCES & CREDITS :

   NOAA       Earth
Advisory